Location: Buenos Aires
(34.6076°S, 58.4371°W)
Time: 12:57:56
(UTC-03:00)

Envisat - Pass Details

Date: 30 June 2021
Orbit: 764 x 766 km, 98.2° (Epoch: 03 August)

Event Time Altitude Azimuth Distance (km) Brightness Sun altitude
Rises 05:15:48 0° 21° (NNE) 3,218 6.6 -33.2°
Reaches altitude 10° 05:18:06 10° 23° (NNE) 2,300 5.8 -32.8°
Enters shadow 05:21:08 37° 34° (NE) 1,189 4.2 -32.1°
